Location: Ehingen
(48.2869°N, 9.7112°E)
Time: 00:32:36
(UTC+01:00)

Envisat - Visible Passes

Search period start: 20 February 2018 00:00
Search period end: 02 March 2018 00:00
Orbit: 764 x 766 km, 98.2° (Epoch: 19 February)

Date Brightness Start Highest point End Pass type
(mag) Time Alt. Az. Time Alt. Az. Time Alt. Az.
20 Feb 3.5 18:53:27 10° SE 18:58:04 36° ENE 19:02:42 10° N visible
20 Feb 4.5 20:32:30 10° SSW 20:37:06 34° W 20:41:43 10° NNW visible
21 Feb 4.3 18:18:07 10° ESE 18:21:41 20° ENE 18:25:17 10° NNE visible
21 Feb 3.2 19:55:09 10° S 20:00:13 70° WSW 20:05:18 10° NNW visible
22 Feb 3.0 19:18:32 10° SSE 19:23:31 59° ENE 19:28:31 10° N visible
22 Feb 5.3 20:59:09 10° SW 21:02:55 21° W 21:06:44 10° NW visible
23 Feb 3.8 18:42:37 10° ESE 18:47:00 30° ENE 18:51:24 10° N visible
23 Feb 4.2 20:21:06 10° SSW 20:25:54 42° W 20:30:43 10° NNW visible
24 Feb 3.0 19:43:58 10° SSE 19:49:04 85° W 19:54:11 10° NNW visible
24 Feb 5.9 21:26:48 10° WSW 21:28:51 12° W 21:30:56 10° WNW visible
25 Feb 3.2 19:07:34 10° SE 19:12:25 48° ENE 19:17:18 10° N visible
25 Feb 5.0 20:47:29 10° SSW 20:51:40 25° W 20:55:53 10° NW visible
26 Feb 4.0 18:31:52 10° ESE 18:35:58 25° ENE 18:40:05 10° N visible
26 Feb 3.8 20:09:46 10° S 20:14:42 52° W 20:19:41 10° NNW visible
27 Feb 2.9 19:32:51 10° SSE 19:37:56 79° ENE 19:43:02 10° NNW visible
27 Feb 5.7 21:14:35 10° SW 21:17:34 15° W 21:20:33 10° NW visible
28 Feb 3.5 18:56:39 10° SE 19:01:21 39° ENE 19:06:04 10° N visible
28 Feb 4.7 20:35:58 10° SSW 20:40:26 31° W 20:44:58 10° NNW visible
01 Mar 3.4 19:58:30 10° S 20:03:32 64° W 20:08:36 10° NNW visible
